Regional Weather Roundup
Issued by NWS Jackson, KY

Home | Current Version | Previous Version | Graphics & Text | Print | Product List | Glossary On
Versions: 1 2 3 4 5 6 7 8 9 10 11 12 13 14 15 16 17 18 19 20 21 22 23 24 25 26 27 28 29 30 31 32 33 34 35 36 37 38 39 40 41 42 43 44 45 46 47 48 49 50
310
ASUS43 KJKL 231810
RWRJKL

EAST KENTUCKY HOURLY WEATHER ROUNDUP
NATIONAL WEATHER SERVICE JACKSON KY
200 PM EDT MON APR 23 2018

NOTE: "FAIR" INDICATES FEW OR NO CLOUDS BELOW 12,000 FEET WITH
NO SIGNIFICANT WEATHER AND/OR OBSTRUCTIONS TO VISIBILITY.

* THESE REPORTS ARE NOT UNDER NWS QUALITY CONTROL AND MAY NOT
  REPORT WEATHER SUCH AS PRECIPITATION AND FOG.

KYZ079-080-083-085-087-088-110-112-115-119-120-231900
...EASTERN KENTUCKY...

CITY           SKY/WX    TMP DP  RH WIND       PRES   REMARKS
JACKSON        LGT RAIN  56  50  80 VRB6G20   30.12F
6HR MIN TEMP:  53; 6HR MAX TEMP:  56; 6HR PCP:  0.37;

LONDON         PTSUNNY   61  52  72 SE18G31   30.05F
6HR MIN TEMP:  53; 6HR MAX TEMP:  61; 6HR PCP:  0.27;

SOMERSET*      CLOUDY    63  48  59 E13       30.03F
MONTICELLO*    LGT RAIN  62  53  72 E8        30.02F
6HR MIN TEMP:  55; 6HR MAX TEMP:  66;

WILLIAMSBURG*  MOCLDY    61  48  63 SE15G25   30.04S
MIDDLESBORO*   RAIN      55  52  91 SE6G17    30.11F
6HR MIN TEMP:  54; 6HR MAX TEMP:  59; 6HR PCP:  0.30;

HARLAN APT*    CLOUDY    53  51  92 SE9G20    30.11S
PIKE CO APT*   RAIN      53  50  89 SE9       30.15S
BIG SANDY APT* DRIZZLE   55  52  89 E7        30.15F
6HR MIN TEMP:  54; 6HR MAX TEMP:  62;

MOREHEAD APT*  LGT RAIN  55  50  82 E9G18     30.14F
ASHLAND*       LGT RAIN  56  52  86 E7        30.19R
$$

KYZ035-036-041-042-044-050-067-078-099-231900
...CENTRAL KENTUCKY...

CITY           SKY/WX    TMP DP  RH WIND       PRES   REMARKS
MT STERLING*   LGT RAIN  55  52  88 E12G18    30.12F
FLEMING/MASON* RAIN      55  54  94 SE15      30.16R
DANVILLE*      CLOUDY    61  52  72 CALM      30.05F
LEXINGTON      CLOUDY    60  54  80 E17G25    30.07F
6HR MIN TEMP:  54; 6HR MAX TEMP:  60; 6HR PCP:  0.51;

FRANKFORT      CLOUDY    59  53  80 E10       30.05F
6HR MIN TEMP:  52; 6HR MAX TEMP:  59; 6HR PCP:  0.50;

LOUISVILLE     CLOUDY    60  55  83 E12       30.02F
6HR MIN TEMP:  54; 6HR MAX TEMP:  60; 6HR PCP:  0.18;

GLASGOW*       CLOUDY    64  53  66 SE16G24   29.97F
BOWLING GREEN  LGT RAIN  66  57  72 SE12      29.95F
6HR MIN TEMP:  57; 6HR MAX TEMP:  66; 6HR PCP:  0.09;

$$

KYZ091>093-OHZ055-061-077-WVZ005-015-034-035-042-231900
...SOUTHERN OHIO/WEST VIRGINIA...

CITY           SKY/WX    TMP DP  RH WIND       PRES   REMARKS
COVINGTON      LGT RAIN  54  53  97 E13       30.11F FOG
COLUMBUS       CLOUDY    68  42  38 SE10      30.16F
DAYTON         LGT RAIN  57  54  89 S7        30.16S
WILMINGTON     LGT RAIN  57  53  86 SE10      30.15S FOG
HUNTINGTON     LGT RAIN  56  50  80 E7        30.18R
CHARLESTON     CLOUDY    59  46  62 E7        30.21R
PINEVILLE*     LGT RAIN  55  46  70 MISG      30.25S
BECKLEY        CLOUDY    53  40  61 SE15G24   30.23R
BLUEFIELD      RAIN      49  41  74 E12G29    30.22S
LOGAN CO APT*  LGT RAIN  55  46  71 SE10G20   30.18S
$$

VAZ002-007-008-TNZ017-027-036-066-071-231900
...SOUTHWEST VIRGINIA/EAST TENNESSEE...

CITY           SKY/WX    TMP DP  RH WIND       PRES   REMARKS
WISE*          PTSUNNY   52  45  76 SE6G17    30.15F
JONESVILLE*      N/A     55  50  82 NE8       30.13F
ABINGDON*      CLOUDY    56  44  63 SE17G25   30.18F
BRISTOL        CLOUDY    59  47  64 E16G31    30.12F
MORRISTOWN*    CLOUDY    55  52  88 E10       30.07F
SEVIERVILLE*   CLOUDY    63  48  59 E13G20    30.01F
KNOXVILLE      PTSUNNY   58  52  80 E16G22    30.01F
LAFOLLETTE*    MOCLDY    55  52  88 VRB7      30.10S
OAK RIDGE      CLOUDY    61  54  77 E8        30.04F
CROSSVILLE     CLOUDY    54  52  93 E5        30.00F
NASHVILLE      PTSUNNY   65  55  70 S10       29.91F
$$

...KEY TO REMARKS...
VSB - VISIBILITY IN MILES
WCI - WIND CHILL INDEX
HX  - HEAT INDEX

$$




USA.gov is the U.S. government's official web portal to all federal, state and local government web resources and services.